Regional Weather Roundup
Issued by NWS Little Rock, AR

Home | Current Version | Previous Version | Graphics & Text | Print | Product List | Glossary On
Versions: 1 2 3 4 5 6 7 8 9 10 11 12 13 14 15 16 17 18 19 20 21 22 23 24 25 26 27 28 29 30 31 32 33 34 35 36 37 38 39 40 41 42 43 44 45 46 47 48 49 50
235
ASUS44 KLZK 250205
RWRLZK

WEATHER ROUNDUP FOR ARKANSAS
NATIONAL WEATHER SERVICE LITTLE ROCK AR
900 PM CDT SUN SEP 24 2017

NOTE: "FAIR" INDICATES FEW OR NO CLOUDS BELOW 12,000 FEET WITH NO
SIGNIFICANT WEATHER AND/OR OBSTRUCTIONS TO VISIBILITY.

ARZ001-003-010-029-250300-
NORTHWEST ARKANSAS

CITY           SKY/WX    TMP DP  RH WIND       PRES   REMARKS
FAYETTEVILLE   CLEAR     73  65  75 CALM      29.97R
FORT SMITH     CLOUDY    77  68  73 NE5       29.93R
HARRISON       CLEAR     72  65  78 S3        30.00R
BENTONVILLE    PTCLDY    77  63  61 SE6       29.99R
ROGERS         PTCLDY    76  65  68 E8        29.99R
SILOAM SPGS    CLEAR     75  64  68 SE5       29.97R
HIGHFILL       CLEAR     77  65  66 CALM      29.98R
SPRINGDALE     CLEAR     77  64  65 SE6       29.99R
$$

ARZ004-005-016-250300-
NORTH CENTRAL ARKANSAS

CITY           SKY/WX    TMP DP  RH WIND       PRES   REMARKS
BATESVILLE     CLEAR     77  66  68 SE6       29.98R
FLIPPIN        CLOUDY    75  65  70 CALM      29.97R
MTN HOME       CLEAR     75  68  78 E6        29.97R
$$

ARZ040-041-250300-
WEST CENTRAL ARKANSAS

CITY           SKY/WX    TMP DP  RH WIND       PRES   REMARKS
MENA           CLEAR     72  70  94 CALM      29.97R
MOUNT IDA      PTCLDY    69  67  93 CALM      29.95R FOG
$$

ARZ009-017-025-026-028-250300-
NORTHEAST ARKANSAS

CITY           SKY/WX    TMP DP  RH WIND       PRES   REMARKS
JONESBORO      CLEAR     74  69  85 NE3       29.98R
NEWPORT        PTCLDY    71  69  93 CALM      29.97S
BLYTHEVILLE    CLEAR     73  70  90 NE3       29.99R
$$

ARZ022-023-033-042-044-250300-
CENTRAL ARKANSAS

CITY           SKY/WX    TMP DP  RH WIND       PRES   REMARKS
LITTLE ROCK    PTCLDY    78  67  68 E5        29.95R
N LITTLE ROCK    N/A     80  66  63 E5        29.95R
JACKSONVILLE   CLEAR     76  68  76 CALM      29.94R
CONWAY           N/A     75  68  78 CALM      29.93R
SEARCY         CLEAR     77  70  79 E5        29.98R
HOT SPRINGS    CLEAR     72  71  97 NW3       29.96R
RUSSELLVILLE   CLEAR     71  68  90 CALM      29.95R
CLINTON        FAIR      73  68  83 CALM      29.97R HAZE
$$

ARZ036-250300-
EAST ARKANSAS

CITY           SKY/WX    TMP DP  RH WIND       PRES   REMARKS
WEST MEMPHIS   CLEAR     72  70  93 CALM      29.96R
$$

ARZ050-053-066-070-073-250300-
SOUTHWEST ARKANSAS

CITY           SKY/WX    TMP DP  RH WIND       PRES   REMARKS
ARKADELPHIA    FAIR      72  71  97 CALM      29.94R
CAMDEN         CLEAR     72  70  94 CALM      29.92R FOG
TEXARKANA      CLEAR     73  66  78 CALM      29.92R
EL DORADO      CLEAR     73  71  93 CALM      29.93R
DE QUEEN       CLEAR     73  70  90 E5        29.90R
$$

ARZ056-057-069-250300-
SOUTHEAST ARKANSAS

CITY           SKY/WX    TMP DP  RH WIND       PRES   REMARKS
PINE BLUFF     CLEAR     74  67  78 E3        29.94R
STUTTGART      CLEAR     80  68  66 E5        29.96R
MONTICELLO     CLEAR     74  69  85 NE3       29.94R

$$






USA.gov is the U.S. government's official web portal to all federal, state and local government web resources and services.